Regional Weather Roundup
Issued by NWS

Home | Current Version | Previous Version | Graphics & Text | Print | Product List | Glossary On
Versions: 1 2 3 4 5 6 7 8 9 10 11 12 13 14 15 16 17 18 19 20 21 22 23 24 25 26 27 28 29 30 31 32 33 34 35 36 37 38 39 40 41 42 43 44 45 46 47 48 49 50
000
ASUS43 KLSX 232007
RWRMO

WEATHER SUMMARY FOR MISSOURI
NATIONAL WEATHER SERVICE SPRINGFIELD MO
300 PM CDT MON OCT 23 2017

NOTE: "FAIR" INDICATES FEW OR NO CLOUDS BELOW 12,000 FEET WITH NO
       SIGNIFICANT WEATHER AND/OR OBSTRUCTIONS TO VISIBILITY.
       CURRENT SKY AND/OR WEATHER CONDITIONS ARE NOT AVAILABLE FOR
       CHILLICOTHE AND FARMINGTON.

MOZ001>031-035>038-043-044-053-054-232100-
...NORTHERN AND WESTERN MISSOURI...

CITY           SKY/WX    TMP DP  RH WIND       PRES   REMARKS
KANSAS CTY INT PTSUNNY   65  38  36 NW23G35   29.97R
KANSAS C DTWN  MOSUNNY   67  43  41 NW14G25   29.95R
LEE`S SUMMIT   SUNNY     65  43  44 NW17G30   29.96R
ST JOSEPH      LGT RAIN  65  38  36 N26G38    29.97R
CHILLICOTHE      N/A     64  44  48 VRB6G17   29.91S
KIRKSVILLE     LGT RAIN  60  46  59 N16G24    29.87R

$$
MOZ066>068-077>081-088>096-101>105-232100-
...SOUTHWEST MISSOURI...

CITY           SKY/WX    TMP DP  RH WIND       PRES   REMARKS
SPRINGFIELD    MOSUNNY   64  45  49 NW14G29   29.94S
JOPLIN         SUNNY     68  44  42 NW17G23   30.00R
BRANSON        PTSUNNY   68  41  37 W14G22    29.94R

$$
MOZ032>034-039>042-045>050-055>058-069>072-232100-
...CENTRAL MISSOURI...

CITY           SKY/WX    TMP DP  RH WIND       PRES   REMARKS
COLUMBIA       MOSUNNY   65  45  48 NW16      29.86R
JEFFERSON CITY SUNNY     67  44  43 W21G26    29.84S
ROLLA          SUNNY     69  45  41 W20G28    29.84F
SEDALIA        PTSUNNY   67  46  47 NW14G24   29.90F
WHITEMAN AFB   PTSUNNY   67  44  43 NW16G28   29.88S
WARRENSBURG    MOSUNNY   63  41  45 NW16G24   29.94R
OSAGE BEACH    SUNNY     65  45  48 W8G18     29.89S

$$
MOZ051-052-059>065-232100-
...EAST CENTRAL MISSOURI...

CITY           SKY/WX    TMP DP  RH WIND       PRES   REMARKS
ST LOUIS INTL  MOSUNNY   68  45  43 SW8       29.80F
SPIRIT OF STL  PTSUNNY   70  46  42 W7        29.78F
ST CHARLES     SUNNY     69  43  38 SW8       29.78F

$$
MOZ072>076-082>087-097>100-106>115-232100-
...SOUTH CENTRAL AND SOUTHEAST MISSOURI...

CITY           SKY/WX    TMP DP  RH WIND       PRES   REMARKS
CAPE GIRARDEAU SUNNY     66  44  45 W7        29.85F
FARMINGTON     SUNNY     70  39  32 W9G17     29.82F
POPLAR BLUFF   SUNNY     73  41  31 SW8       29.85F
WEST PLAINS    SUNNY     69  42  37 W12G21    29.88F

$$


USA.gov is the U.S. government's official web portal to all federal, state and local government web resources and services.